Total_Precipitation_Accumulation
0.04 0.13 0.27 0.47 0.86 1.25 1.17 0.73 0.47 0.26 0.30 0.40 0.51 0.60 0.57 0.59 0.80 1.21 0.93 0.55 0.31 0.30 0.32 0.39 0.51 0.39 0.35 0.36 0.40 0.41 0.44 0.44 0.47 0.48 0.59 0.64 0.73 0.85 0.93 0.99 1.02 1.16 1.24 1.27 1.30 1.28 1.27 1.25 1.22
0.08 0.24 0.40 0.65 1.05 1.11 0.93 0.56 0.31 0.23 0.26 0.38 0.45 0.41 0.39 0.35 0.31 0.32 0.48 0.45 0.32 0.27 0.18 0.18 0.33 0.35 0.30 0.32 0.36 0.40 0.38 0.38 0.42 0.46 0.51 0.57 0.67 0.81 0.91 1.00 1.07 1.08 1.09 1.13 1.08 1.12 1.06 1.04 1.04
0.12 0.23 0.39 0.71 0.83 0.67 0.55 0.35 0.28 0.27 0.34 0.44 0.43 0.36 0.37 0.44 0.28 0.22 0.32 0.32 0.26 0.18 0.13 0.18 0.27 0.28 0.26 0.29 0.35 0.35 0.34 0.38 0.42 0.44 0.50 0.56 0.69 0.80 0.81 0.88 0.99 0.95 0.98 1.02 0.98 0.98 0.89 0.85 0.88
0.13 0.23 0.39 0.51 0.48 0.37 0.29 0.26 0.24 0.24 0.39 0.55 0.58 0.43 0.33 0.32 0.24 0.19 0.22 0.20 0.19 0.16 0.12 0.18 0.28 0.26 0.26 0.30 0.34 0.34 0.32 0.37 0.44 0.46 0.54 0.63 0.72 0.75 0.70 0.72 0.76 0.81 0.88 0.86 0.87 0.91 0.85 0.81 0.86
0.15 0.23 0.46 0.42 0.32 0.28 0.26 0.22 0.21 0.24 0.33 0.56 0.65 0.61 0.53 0.45 0.30 0.25 0.27 0.19 0.13 0.14 0.16 0.20 0.30 0.28 0.28 0.30 0.32 0.36 0.36 0.40 0.46 0.50 0.56 0.62 0.68 0.69 0.64 0.64 0.69 0.74 0.82 0.80 0.81 0.83 0.86 0.90 0.98
0.15 0.22 0.30 0.31 0.21 0.18 0.18 0.18 0.25 0.28 0.44 0.55 0.57 0.64 0.71 0.61 0.45 0.31 0.32 0.24 0.18 0.14 0.15 0.21 0.30 0.30 0.30 0.32 0.34 0.35 0.37 0.41 0.45 0.49 0.49 0.52 0.58 0.65 0.62 0.62 0.65 0.63 0.68 0.73 0.73 0.71 0.76 0.83 0.95
0.12 0.19 0.21 0.25 0.18 0.15 0.13 0.16 0.29 0.35 0.61 0.75 0.79 0.74 0.84 0.81 0.54 0.38 0.38 0.31 0.29 0.23 0.21 0.27 0.29 0.30 0.36 0.39 0.37 0.36 0.37 0.41 0.46 0.50 0.50 0.50 0.48 0.55 0.59 0.62 0.64 0.62 0.66 0.65 0.66 0.69 0.70 0.72 0.82
0.06 0.09 0.14 0.17 0.13 0.11 0.11 0.14 0.24 0.33 0.53 0.60 0.73 0.86 1.03 0.85 0.60 0.51 0.51 0.50 0.50 0.50 0.49 0.44 0.39 0.39 0.38 0.39 0.43 0.45 0.43 0.46 0.51 0.53 0.55 0.62 0.63 0.59 0.62 0.62 0.64 0.65 0.65 0.68 0.74 0.79 0.81 0.85 0.91
0.05 0.06 0.09 0.11 0.08 0.08 0.08 0.13 0.19 0.35 0.45 0.48 0.61 0.75 0.90 0.69 0.63 0.71 0.82 0.84 0.83 0.81 0.84 0.71 0.66 0.51 0.52 0.49 0.47 0.59 0.57 0.62 0.70 0.71 0.73 0.95 1.24 1.10 1.07 0.83 0.90 0.88 0.87 0.91 0.99 1.05 1.11 1.09 1.12
0.05 0.05 0.05 0.05 0.04 0.05 0.07 0.13 0.20 0.34 0.71 0.91 1.04 0.94 0.78 0.76 0.80 0.87 0.97 1.02 1.05 1.06 0.92 0.88 0.89 0.73 0.76 0.74 0.85 1.15 1.05 1.07 1.18 1.22 1.17 1.48 1.64 1.55 1.13 1.13 1.40 1.44 1.48 1.45 1.50 1.68 1.67 1.37 1.18
0.03 0.03 0.03 0.03 0.02 0.02 0.06 0.11 0.13 0.29 0.82 1.37 1.49 1.15 0.82 0.91 1.05 1.19 1.24 1.28 1.19 1.21 1.06 1.16 1.15 1.06 1.07 1.32 1.16 1.29 1.51 1.66 1.64 1.61 1.77 1.93 1.62 1.40 1.26 1.43 1.69 1.74 1.80 1.80 1.94 2.19 2.02 1.95 1.95
0.01 0.01 0.02 0.02 0.02 0.03 0.05 0.12 0.17 0.31 0.76 1.20 1.21 0.97 0.81 1.02 1.19 1.46 1.60 1.72 1.76 1.74 1.68 1.63 1.67 1.67 1.65 1.51 1.52 1.42 1.46 1.56 1.72 1.81 1.80 1.97 2.00 1.94 1.80 1.86 1.84 1.84 1.97 2.27 2.27 2.41 2.52 2.53 2.30
0.01 0.01 0.01 0.02 0.02 0.03 0.06 0.12 0.23 0.43 0.53 0.60 0.70 0.74 0.84 1.14 1.44 1.80 2.01 2.19 2.29 2.51 2.57 2.52 2.38 2.20 2.26 2.23 2.06 1.69 1.74 1.69 1.68 1.94 1.99 2.06 2.20 2.29 2.22 2.10 2.12 1.84 1.90 2.24 2.58 2.47 2.60 2.74 2.57
0.01 0.01 0.01 0.02 0.02 0.04 0.06 0.12 0.27 0.52 0.53 0.54 0.64 0.68 0.81 1.23 1.77 2.25 2.34 2.45 2.70 3.29 3.66 3.42 3.19 2.89 2.80 2.78 2.62 2.48 2.15 2.05 1.85 1.98 2.08 2.25 2.44 2.52 2.47 2.27 2.23 1.93 1.88 2.13 2.43 2.45 2.67 2.68 2.68
0.02 0.02 0.05 0.05 0.05 0.10 0.12 0.22 0.42 0.63 0.58 0.59 0.71 0.75 0.83 1.20 1.67 2.41 2.77 2.99 3.24 3.91 4.41 4.15 4.00 3.95 3.72 3.58 3.19 2.73 2.39 2.19 2.29 2.38 2.45 2.57 2.65 2.72 2.65 2.50 2.24 2.13 2.21 2.29 2.29 2.39 2.80 2.64 2.52
0.03 0.06 0.13 0.12 0.08 0.12 0.18 0.50 0.64 0.71 0.64 0.69 0.91 0.85 0.85 1.15 1.66 2.38 2.99 3.47 3.77 4.09 4.46 4.79 4.49 4.83 4.74 4.45 3.96 3.42 3.13 2.99 2.82 2.72 2.78 2.63 2.63 2.67 2.78 2.46 2.12 2.27 2.43 2.52 2.50 2.52 2.73 2.74 2.84
0.07 0.10 0.15 0.18 0.14 0.13 0.21 0.62 0.75 0.59 0.62 0.79 0.96 0.97 1.00 1.24 1.59 2.07 2.71 3.27 3.84 4.39 4.84 5.29 5.52 5.61 5.20 4.82 4.40 4.08 3.85 3.57 3.11 2.62 2.45 2.31 2.16 2.06 2.15 1.91 1.82 1.92 2.04 1.97 1.88 2.20 2.41 2.54 2.70
0.05 0.09 0.16 0.30 0.22 0.15 0.22 0.51 0.67 0.62 0.63 0.82 1.05 1.01 1.07 1.27 1.61 2.01 2.56 3.03 3.69 4.54 5.34 5.73 5.83 5.44 5.04 4.68 4.21 3.99 3.69 3.33 2.94 2.47 2.15 1.94 1.84 1.66 1.75 1.54 1.49 1.68 1.83 1.86 1.97 2.12 2.11 2.06 2.17
0.05 0.08 0.16 0.24 0.16 0.16 0.28 0.50 0.63 0.68 0.75 0.91 1.07 1.06 1.10 1.21 1.57 2.01 2.53 3.03 3.71 4.62 5.53 5.85 5.58 5.00 4.56 4.15 3.66 3.27 2.92 2.66 2.55 2.26 1.92 1.79 1.72 1.70 1.85 1.62 1.73 1.75 1.79 1.81 1.84 1.91 1.81 1.59 1.76
0.07 0.10 0.16 0.20 0.13 0.16 0.27 0.51 0.74 0.85 0.95 0.91 0.97 1.07 1.02 1.21 1.63 2.12 2.70 3.12 3.47 3.99 4.73 5.01 4.64 4.00 3.42 3.13 2.96 2.77 2.67 2.36 2.16 2.06 1.94 1.66 1.61 1.62 1.63 1.69 1.45 1.47 1.59 1.52 1.57 1.82 1.77 1.52 1.62
0.09 0.10 0.14 0.17 0.10 0.16 0.28 0.64 0.94 1.06 0.87 0.70 0.64 0.77 0.79 0.95 1.46 2.19 2.71 3.00 3.25 3.45 3.45 3.55 3.42 2.92 2.57 2.46 2.44 2.40 2.47 2.29 2.04 1.90 1.73 1.50 1.42 1.36 1.39 1.39 1.36 1.46 1.40 1.46 1.55 1.63 1.71 1.60 1.50
0.09 0.07 0.06 0.06 0.08 0.26 0.39 0.93 1.20 1.09 0.91 0.71 0.59 0.61 0.64 0.85 1.32 2.06 2.34 2.45 2.49 2.58 2.39 2.38 2.45 2.27 2.20 2.11 2.11 1.98 1.84 1.79 1.68 1.67 1.62 1.49 1.38 1.29 1.20 1.23 1.24 1.33 1.34 1.54 1.38 1.44 1.58 1.61 1.45
0.07 0.05 0.05 0.08 0.13 0.29 0.49 0.85 1.23 1.10 1.04 0.78 0.58 0.56 0.66 0.74 1.02 1.35 1.42 1.54 1.61 1.69 1.73 1.89 2.12 2.13 2.03 1.97 2.07 2.07 1.80 1.63 1.53 1.54 1.60 1.49 1.37 1.27 1.17 1.20 1.27 1.32 1.32 1.37 1.42 1.59 1.55 1.50 1.46
0.05 0.06 0.12 0.25 0.37 0.69 0.71 0.80 1.22 1.10 0.89 0.60 0.50 0.53 0.49 0.52 0.70 0.90 0.95 0.99 1.04 1.10 1.23 1.43 1.81 1.96 1.87 1.82 1.86 1.84 1.76 1.68 1.52 1.41 1.41 1.40 1.33 1.30 1.31 1.26 1.34 1.34 1.32 1.32 1.35 1.46 1.45 1.48 1.53
0.06 0.10 0.28 0.67 1.06 1.16 0.73 0.80 1.13 0.77 0.53 0.39 0.34 0.36 0.41 0.54 0.62 0.73 0.86 0.88 0.81 0.79 0.90 1.10 1.33 1.45 1.49 1.56 1.66 1.73 1.80 1.73 1.54 1.44 1.33 1.31 1.21 1.20 1.32 1.33 1.35 1.40 1.41 1.34 1.35 1.38 1.32 1.41 1.53
0.08 0.10 0.20 0.39 0.52 0.65 0.65 1.07 1.20 0.66 0.43 0.32 0.29 0.29 0.42 0.50 0.47 0.50 0.57 0.57 0.56 0.64 0.73 0.88 1.00 1.09 1.19 1.28 1.43 1.57 1.60 1.58 1.48 1.50 1.38 1.30 1.19 1.17 1.28 1.37 1.34 1.30 1.26 1.25 1.46 1.34 1.28 1.38 1.45
0.07 0.08 0.09 0.10 0.16 0.41 0.74 0.99 0.91 0.59 0.40 0.31 0.30 0.29 0.38 0.39 0.33 0.31 0.32 0.32 0.39 0.56 0.66 0.73 0.82 0.91 1.02 1.12 1.30 1.44 1.47 1.45 1.45 1.43 1.30 1.22 1.25 1.19 1.24 1.21 1.26 1.26 1.21 1.26 1.40 1.37 1.36 1.41 1.37
0.08 0.07 0.07 0.07 0.17 0.38 0.69 1.03 1.05 0.76 0.55 0.46 0.35 0.29 0.32 0.32 0.27 0.28 0.26 0.23 0.24 0.32 0.46 0.61 0.70 0.85 1.00 1.08 1.10 1.17 1.32 1.29 1.26 1.20 1.14 1.21 1.23 1.21 1.27 1.28 1.18 1.18 1.22 1.30 1.43 1.40 1.38 1.47 1.54
0.07 0.07 0.07 0.07 0.09 0.21 0.53 0.81 0.69 0.57 0.43 0.42 0.40 0.35 0.33 0.32 0.30 0.25 0.25 0.23 0.21 0.25 0.36 0.51 0.61 0.73 0.84 0.86 0.88 1.00 1.11 1.10 1.06 1.04 1.01 1.08 1.10 1.14 1.17 1.20 1.20 1.20 1.27 1.46 1.71 1.66 1.59 1.61 1.68
0.07 0.07 0.08 0.09 0.10 0.13 0.28 0.44 0.36 0.38 0.34 0.39 0.40 0.41 0.44 0.45 0.41 0.33 0.30 0.24 0.29 0.30 0.33 0.44 0.47 0.52 0.58 0.63 0.70 0.82 0.94 0.94 0.94 0.96 1.08 1.14 1.11 1.04 0.97 1.00 1.07 1.08 1.18 1.41 1.73 1.87 1.86 1.86 1.78